[TLELIST] Archives

 

[TLELIST] Current TLEs

March 17th 2026 PDT

0 HST 1 20580U 90037B 26076.05470114 .00006491 00000-0 21207-3 0 9992 2 20580 28.4724 349.7537 0001684 201.5837 158.4688 15.29603902774440 0 ISS (ZARYA) 1 25544U 98067A 26076.19332186 .00012290 00000-0 23614-3 0 9997 2 25544 51.6337 35.2624 0006226 201.0018 159.0715 15.48337753557491 0 CXO 1 25867U 99040B 26076.82039363 .00001113 00000-0 00000-0 0 9991 2 25867 54.6484 119.4425 7986457 310.6142 0.4584 0.37802383 16978 ...Continue Reading

[TLELIST] Current TLEs

March 16th 2026 PDT

0 HST 1 20580U 90037B 26075.07602632 .00006675 00000-0 21838-3 0 9999 2 20580 28.4725 356.4312 0001720 190.3932 169.6628 15.29590693774292 0 ISS (ZARYA) 1 25544U 98067A 26075.16062931 .00008402 00000-0 16433-3 0 9992 2 25544 51.6332 40.3661 0006343 195.9803 164.0986 15.48306205557334 0 CXO 1 25867U 99040B 26076.82039363 .00001113 00000-0 00000-0 0 9991 2 25867 54.6484 119.4425 7986457 310.6142 0.4584 0.37802383 16978 ...Continue Reading

[TLELIST] Current TLEs

March 15th 2026 PDT

0 HST 1 20580U 90037B 26074.09734323 .00009139 00000-0 30180-3 0 9991 2 20580 28.4724 3.1083 0001755 179.9846 180.0750 15.29577841774144 0 ISS (ZARYA) 1 25544U 98067A 26074.19246378 .00009711 00000-0 18872-3 0 9996 2 25544 51.6330 45.1519 0006364 192.7288 167.3540 15.48288531557188 0 CXO 1 25867U 99040B 26076.82039363 .00001113 00000-0 00000-0 0 9991 2 25867 54.6484 119.4425 7986457 310.6142 0.4584 0.37802383 16978 ...Continue Reading

[TLELIST] Current TLEs

March 14th 2026 PDT

0 HST 1 20580U 90037B 26073.11865010 .00008763 00000-0 28927-3 0 9999 2 20580 28.4724 9.7854 0001781 169.7396 190.3236 15.29559924773995 0 ISS (ZARYA) 1 25544U 98067A 26072.70791847 .00011780 00000-0 22432-3 0 9993 2 25544 51.6324 52.4887 0007884 189.2977 170.7866 15.48633802556952 0 CXO 1 25867U 99040B 26074.17591503 .00001098 00000-0 00000+0 0 9997 2 25867 54.6015 119.5309 7987924 310.6410 0.3950 0.37797975 16963 ...Continue Reading

[TLELIST] Current TLEs

March 14th 2026 PDT

0 HST 1 20580U 90037B 26073.11865010 .00008763 00000-0 28927-3 0 9999 2 20580 28.4724 9.7854 0001781 169.7396 190.3236 15.29559924773995 0 ISS (ZARYA) 1 25544U 98067A 26072.70791847 .00011780 00000-0 22432-3 0 9993 2 25544 51.6324 52.4887 0007884 189.2977 170.7866 15.48633802556952 0 CXO 1 25867U 99040B 26074.17591503 .00001098 00000-0 00000+0 0 9997 2 25867 54.6015 119.5309 7987924 310.6410 0.3950 0.37797975 16963 ...Continue Reading

[TLELIST] Current TLEs

March 13th 2026 PDT

0 HST 1 20580U 90037B 26071.94420327 .00008743 00000-0 28877-3 0 9998 2 20580 28.4723 17.7975 0001801 157.8636 202.2037 15.29540863773810 0 ISS (ZARYA) 1 25544U 98067A 26071.86901803 .00011348 00000-0 21655-3 0 9990 2 25544 51.6324 56.6367 0007924 186.1410 173.9482 15.48614629556825 0 CXO 1 25867U 99040B 26074.17591503 .00001098 00000-0 00000+0 0 9997 2 25867 54.6015 119.5309 7987924 310.6410 0.3950 0.37797975 16963 ...Continue Reading

[TLELIST] Current TLEs

March 12th 2026 PDT

0 HST 1 20580U 90037B 26071.22647860 .00008646 00000-0 28559-3 0 9991 2 20580 28.4723 22.6938 0001818 150.2149 209.8550 15.29528665773705 0 ISS (ZARYA) 1 25544U 98067A 26071.15917150 .00009166 00000-0 17667-3 0 9997 2 25544 51.6325 60.1463 0007984 183.4136 176.6799 15.48595269556711 0 CXO 1 25867U 99040B 26071.53156319 .00001015 00000-0 00000-0 0 9996 2 25867 54.5614 119.5985 7991212 310.6812 0.3445 0.37798688 16958 ...Continue Reading

[TLELIST] Current TLEs

March 12th 2026 PDT

0 HST 1 20580U 90037B 26071.22647860 .00008646 00000-0 28559-3 0 9991 2 20580 28.4723 22.6938 0001818 150.2149 209.8550 15.29528665773705 0 ISS (ZARYA) 1 25544U 98067A 26071.15917150 .00009166 00000-0 17667-3 0 9997 2 25544 51.6325 60.1463 0007984 183.4136 176.6799 15.48595269556711 0 CXO 1 25867U 99040B 26071.53156319 .00001015 00000-0 00000-0 0 9996 2 25867 54.5614 119.5985 7991212 310.6812 0.3445 0.37798688 16958 ...Continue Reading

[TLELIST] Current TLEs

March 11th 2026 PDT

0 HST 1 20580U 90037B 26070.24775401 .00008856 00000-0 29286-3 0 9996 2 20580 28.4722 29.3700 0001841 140.8013 219.2716 15.29511346773556 0 ISS (ZARYA) 1 25544U 98067A 26070.19118651 .00009215 00000-0 17770-3 0 9999 2 25544 51.6325 64.9326 0007932 179.9008 180.1983 15.48575655556567 0 CXO 1 25867U 99040B 26071.53156319 .00001015 00000-0 00000-0 0 9996 2 25867 54.5614 119.5985 7991212 310.6812 0.3445 0.37798688 16958 ...Continue Reading

[TLELIST] Current TLEs

March 10th 2026 PDT

0 HST 1 20580U 90037B 26069.20376848 .00009369 00000-0 31039-3 0 9991 2 20580 28.4717 36.4910 0001862 130.7593 229.3165 15.29493470773395 0 ISS (ZARYA) 1 25544U 98067A 26069.15865510 .00009130 00000-0 17626-3 0 9992 2 25544 51.6324 70.0375 0007972 176.2903 183.8146 15.48557200556406 0 CXO 1 25867U 99040B 26071.53156319 .00001015 00000-0 00000-0 0 9996 2 25867 54.5614 119.5985 7991212 310.6812 0.3445 0.37798688 16958 ...Continue Reading
  • This mailing list is a public mailing list - anyone may join or leave, at any time.
  • This mailing list is announce-only.

International Space Station (ISS) / Hubble Space Telescope (HST) / Chandra X-Ray Observatory Orbital Data via EMAIL

Privacy Policy:

Private list